Weather History for Toledo, OH

Change the Weather History Date:

Sunday, March 24, 2013

  Actual Average Record
Temperature  
Mean Temperature 29 °F 41 °F  
Max Temperature 35 °F 50 °F 83 °F (1910)
Min Temperature 22 °F 31 °F 1 °F (1974)
Degree Days  
Heating Degree Days 36 24  
Month to date heating degree days 797 690  
Since 1 July heating degree days 5253 5266  
Cooling Degree Days 0 0  
Month to date cooling degree days 0 0  
Year to date cooling degree days 0 0  
Moisture  
Dew Point 22 °F    
Average Humidity 72    
Maximum Humidity 92    
Minimum Humidity 51    
Precipitation  
Precipitation T in 0.08 in 0.77 in (1988)
Month to date precipitation 0.54 1.85  
Year to date precipitation 6.98 5.97  
Snow  
Snow T in 0.20 in - ()
Month to date snowfall 0.1 4.9  
Since 1 July snowfall 20.8 35.4  
Snow Depth 0.00 in    
Sea Level Pressure  
Sea Level Pressure 29.82 in    
Wind  
Wind Speed 15 mph (ENE)    
Max Wind Speed 29 mph    
Max Gust Speed 35 mph    
Visibility 10 miles    
Events      
T = Trace of Precipitation, MM = Missing Value Source: NWS Daily Summary

Daily Weather History Graph

Daily Weather History Graph

Search for Another Location

Airport:

Trip Planner

Search our weather history database for the weather conditions in past years. The results will help you decide how hot, cold, wet, or windy it might be!

Date:

Astronomy

Mar. 24, 2013 Rise Set
Actual Time 7:31 AM EDT 7:52 PM EDT
Civil Twilight 7:03 AM EDT 8:19 PM EDT
Nautical Twilight 6:31 AM EDT 8:52 PM EDT
Astronomical Twilight 5:57 AM EDT 9:26 PM EDT
Moon 5:17 PM EDT (3/24) 5:43 AM EDT (3/24)
Length of Visible Light 13h 16m
Length of Day
12h 20m
Waxing Gibbous, 91% of the Moon is Illuminated
Mar 24
Waxing Gibbous
Mar 27
Full
Apr 3
Last Quarter
Apr 10
New
Apr 18
First Quarter

Hourly Weather History & Observations

Time (EDT) Temp. Windchill Dew Point Humidity Pressure Visibility Wind Dir Wind Speed Gust Speed Precip Events Conditions
12:52 AM 26.1 °F 20.5 °F 19.9 °F 78% 30.01 in 10.0 mi NE 4.6 mph - N/A   Clear
1:52 AM 25.0 °F - 19.9 °F 81% 30.04 in 10.0 mi Calm Calm - N/A   Clear
2:52 AM 24.1 °F - 19.0 °F 81% 30.01 in 9.0 mi Calm Calm - N/A   Clear
3:52 AM 21.9 °F 13.4 °F 19.0 °F 89% 30.01 in 8.0 mi NE 6.9 mph - N/A   Clear
4:52 AM 25.0 °F 20.7 °F 21.0 °F 85% 29.99 in 8.0 mi NE 3.5 mph - N/A   Clear
5:52 AM 26.1 °F 21.9 °F 21.9 °F 84% 29.99 in 8.0 mi NNE 3.5 mph - N/A   Clear
6:52 AM 26.1 °F 20.5 °F 21.9 °F 84% 29.98 in 8.0 mi NE 4.6 mph - N/A   Clear
7:52 AM 27.0 °F 20.5 °F 24.1 °F 89% 29.96 in 8.0 mi NE 5.8 mph - N/A   Clear
8:52 AM 30.0 °F 20.5 °F 25.0 °F 82% 29.94 in 10.0 mi East 11.5 mph - N/A   Mostly Cloudy
9:19 AM 30.2 °F 18.5 °F 24.8 °F 80% 29.90 in 10.0 mi East 17.3 mph 23.0 mph N/A   Scattered Clouds
9:48 AM 30.2 °F 17.8 °F 24.8 °F 80% 29.88 in 10.0 mi East 19.6 mph 29.9 mph N/A   Mostly Cloudy
9:52 AM 30.9 °F 18.1 °F 24.1 °F 76% 29.90 in 10.0 mi ENE 21.9 mph 28.8 mph N/A   Overcast
10:52 AM 32.0 °F 20.8 °F 24.1 °F 73% 29.90 in 10.0 mi ENE 17.3 mph - N/A   Overcast
11:19 AM 32.0 °F 20.8 °F 24.8 °F 75% 29.85 in 10.0 mi ENE 17.3 mph - N/A   Mostly Cloudy
11:52 AM 33.1 °F 22.2 °F 24.1 °F 70% 29.87 in 10.0 mi ENE 17.3 mph 24.2 mph N/A   Mostly Cloudy
12:52 PM 33.1 °F 21.2 °F 21.9 °F 64% 29.83 in 10.0 mi ENE 20.7 mph - N/A   Mostly Cloudy
1:52 PM 33.1 °F 20.3 °F 21.0 °F 61% 29.80 in 10.0 mi ENE 24.2 mph - N/A   Overcast
2:52 PM 35.1 °F 23.3 °F 21.0 °F 57% 29.77 in 10.0 mi ENE 23.0 mph 29.9 mph N/A   Overcast
3:52 PM 34.0 °F 22.1 °F 17.1 °F 50% 29.75 in 10.0 mi East 21.9 mph 29.9 mph N/A   Overcast
4:52 PM 34.0 °F 21.8 °F 18.0 °F 52% 29.71 in 10.0 mi East 23.0 mph 31.1 mph N/A   Overcast
5:52 PM 34.0 °F 21.5 °F 19.9 °F 56% 29.66 in 10.0 mi ENE 24.2 mph 34.5 mph N/A   Overcast
6:52 PM 33.1 °F 20.6 °F 21.9 °F 64% 29.65 in 10.0 mi ENE 23.0 mph 32.2 mph N/A   Overcast
7:52 PM 32.0 °F 22.1 °F 23.0 °F 69% 29.64 in 10.0 mi East 13.8 mph - N/A   Overcast
8:07 PM 32.0 °F 21.2 °F 23.0 °F 69% 29.62 in 10.0 mi ENE 16.1 mph 25.3 mph N/A   Overcast
8:33 PM 32.0 °F 19.5 °F 23.0 °F 69% 29.62 in 10.0 mi ENE 21.9 mph 29.9 mph N/A   Overcast
8:52 PM 32.0 °F 19.8 °F 23.0 °F 69% 29.64 in 10.0 mi ENE 20.7 mph 27.6 mph N/A   Overcast
9:52 PM 32.0 °F 20.8 °F 21.9 °F 66% 29.62 in 10.0 mi ENE 17.3 mph 24.2 mph N/A   Overcast
10:52 PM 32.0 °F 20.1 °F 21.9 °F 66% 29.59 in 10.0 mi NE 19.6 mph 28.8 mph N/A   Overcast
11:52 PM 32.0 °F 21.2 °F 21.0 °F 64% 29.59 in 10.0 mi NE 16.1 mph 23.0 mph N/A   Overcast